Flag for U.S.A. Weather past 2 weeks in Nashville, Tennessee, U.S.A.

Now
82 °F

Partly sunny.


Feels Like: 82 °F
Forecast: 67 / 83 °F
Wind: 15 mph from Northwest

Location: Nashville International Airport

Current Time: Jul 28, 2014 at 3:13:21 PM

Latest Report: Jul 28, 2014 at 2:53 PM


Visibility: 10 mi

Pressure: 29.97 "Hg

Humidity: 46%

Dew point: 59 °F

Location of NashvilleLocation

Historic Weather in Nashville — Graph

°F

Nashville temperature yesterday

Maximum temperature yesterday: 94 °F (at 3:53 PM)
Minimum temperature yesterday: 75 °F (at 10:53 PM)
Average temperature yesterday: 85 °F

Past Weeks' High & Low Weather Summary

 TemperatureHumidityPressure
High94 °F (Jul 13, 2:53 PM)100% (Jul 19, 5:59 AM)30.13 "Hg (Jul 19, 5:59 AM)
Low57 °F (Jul 16, 5:53 AM)34% (Jul 17, 3:53 PM)29.82 "Hg (Jul 27, 4:53 PM)
Average76 °F70%29.99 "Hg
* Reported Jul 13 1:53 PM — Jul 28 1:53 PM, Nashville, Weather by CustomWeather, © 2014

Note: Actual official high and low records may vary slightly from our data, if they occured in-between our weather recording intervals... More about our weather records

Advertising

Nashville weather history for previous 24 hours

 ConditionsComfort  
Time TempWeatherWind HumidityBarometerVisibility
1:53 PM
Jul 28
84 °FBroken clouds.16 mph43%29.98 "Hg10 mi
12:53 PM83 °FPartly sunny.13 mph46%29.98 "Hg10 mi
11:53 AM79 °FScattered clouds.12 mph52%30.00 "Hg10 mi
10:53 AM78 °FScattered clouds.8 mph56%30.01 "Hg10 mi
9:53 AM77 °FPassing clouds.7 mph58%30.00 "Hg10 mi
8:53 AM75 °FSunny.8 mph62%29.99 "Hg10 mi
7:53 AM73 °FSunny.8 mph66%29.99 "Hg10 mi
6:53 AM70 °FSunny.6 mph76%29.98 "Hg10 mi
5:53 AM68 °FSunny.3 mph78%29.96 "Hg10 mi
4:53 AM69 °FClear.3 mph76%29.95 "Hg10 mi
3:53 AM70 °FClear.7 mph79%29.93 "Hg10 mi
2:53 AM72 °FClear.3 mph81%29.93 "Hg10 mi
1:53 AM75 °FClear.5 mph85%29.91 "Hg10 mi
12:53 AM76 °FPassing clouds.6 mph88%29.90 "Hg10 mi
11:53 PM
Jul 27
77 °FPassing clouds.7 mph90%29.89 "Hg10 mi
10:53 PM75 °FPassing clouds.No wind94%29.88 "Hg9 mi
9:53 PM83 °FThunderstorms. Overcast.16 mph79%29.88 "Hg9 mi
9:00 PM86 °FMostly cloudy.7 mph75%29.87 "Hg10 mi
7:53 PM87 °FBroken clouds.8 mph69%29.84 "Hg10 mi
6:53 PM89 °FBroken clouds.12 mph63%29.83 "Hg10 mi
5:53 PM90 °FMostly cloudy.13 mph61%29.82 "Hg10 mi
4:53 PM92 °FBroken clouds.14 mph58%29.82 "Hg10 mi
3:53 PM94 °FBroken clouds.9 mph54%29.84 "Hg10 mi
Weather by CustomWeather, © 2014

See weather overviewHow to use our weather pages